QPF
0.00 0.00 0.03 0.04 0.01 0.02 0.01 0.00 0.00 0.00 0.00 0.00 0.00 0.00 0.00 0.00 0.00 0.00 0.00 0.00 0.00 0.00 0.00 0.00 0.00 0.00 0.00 0.00 0.00 0.00 0.00 0.00 0.00 0.00 0.00 0.00 0.00 0.00 0.00 0.00 0.00 0.00 0.00 0.00 0.00 0.00 0.00 0.00 0.00
0.00 0.00 0.03 0.04 0.01 0.03 0.01 0.00 0.00 0.00 0.00 0.00 0.00 0.00 0.00 0.00 0.00 0.00 0.00 0.00 0.00 0.00 0.00 0.00 0.00 0.00 0.00 0.00 0.00 0.00 0.00 0.00 0.00 0.00 0.00 0.00 0.00 0.00 0.00 0.00 0.00 0.00 0.00 0.00 0.00 0.00 0.00 0.00 0.00
0.00 0.00 0.03 0.03 0.02 0.02 0.01 0.00 0.00 0.00 0.00 0.00 0.00 0.00 0.00 0.00 0.00 0.00 0.00 0.00 0.00 0.00 0.00 0.00 0.00 0.00 0.00 0.00 0.00 0.00 0.00 0.00 0.00 0.00 0.00 0.00 0.00 0.00 0.00 0.00 0.00 0.00 0.00 0.00 0.00 0.00 0.00 0.00 0.00
0.00 0.00 0.01 0.02 0.02 0.04 0.03 0.01 0.01 0.00 0.00 0.00 0.00 0.00 0.00 0.00 0.00 0.00 0.00 0.00 0.00 0.00 0.00 0.00 0.00 0.00 0.00 0.00 0.00 0.00 0.00 0.00 0.00 0.00 0.00 0.00 0.00 0.00 0.00 0.00 0.00 0.00 0.00 0.00 0.00 0.00 0.00 0.00 0.00
0.00 0.00 0.00 0.00 0.01 0.02 0.03 0.03 0.01 0.00 0.00 0.00 0.00 0.00 0.00 0.00 0.00 0.00 0.00 0.00 0.00 0.00 0.00 0.00 0.00 0.00 0.00 0.00 0.00 0.00 0.00 0.00 0.00 0.00 0.00 0.00 0.00 0.00 0.00 0.00 0.00 0.00 0.00 0.00 0.00 0.00 0.00 0.00 0.00
0.00 0.00 0.00 0.00 0.01 0.01 0.03 0.05 0.03 0.01 0.00 0.00 0.00 0.00 0.00 0.00 0.00 0.00 0.00 0.00 0.00 0.00 0.00 0.00 0.00 0.00 0.00 0.00 0.00 0.00 0.00 0.00 0.00 0.00 0.00 0.00 0.00 0.00 0.00 0.00 0.00 0.00 0.00 0.00 0.00 0.00 0.00 0.00 0.00
0.00 0.00 0.00 0.00 0.00 0.02 0.02 0.03 0.03 0.02 0.00 0.00 0.00 0.00 0.00 0.00 0.00 0.00 0.00 0.00 0.00 0.00 0.00 0.00 0.00 0.00 0.00 0.00 0.00 0.00 0.00 0.00 0.00 0.00 0.00 0.00 0.00 0.00 0.00 0.00 0.00 0.00 0.00 0.00 0.00 0.00 0.00 0.00 0.00
0.00 0.00 0.00 0.00 0.00 0.01 0.02 0.02 0.03 0.03 0.01 0.00 0.00 0.00 0.00 0.00 0.00 0.00 0.00 0.00 0.00 0.00 0.00 0.00 0.00 0.00 0.00 0.00 0.00 0.00 0.00 0.00 0.00 0.00 0.00 0.00 0.00 0.00 0.00 0.00 0.01 0.01 0.02 0.01 0.01 0.00 0.00 0.00 0.00
0.00 0.00 0.00 0.00 0.00 0.00 0.00 0.01 0.02 0.02 0.02 0.01 0.01 0.01 0.01 0.00 0.00 0.00 0.00 0.00 0.00 0.00 0.00 0.00 0.00 0.00 0.00 0.00 0.00 0.00 0.00 0.00 0.00 0.00 0.00 0.00 0.00 0.00 0.00 0.01 0.03 0.06 0.07 0.05 0.04 0.03 0.03 0.02 0.01
0.00 0.00 0.00 0.00 0.00 0.00 0.00 0.00 0.01 0.01 0.02 0.03 0.03 0.05 0.05 0.03 0.01 0.00 0.00 0.00 0.00 0.00 0.00 0.00 0.00 0.00 0.00 0.00 0.00 0.00 0.00 0.00 0.00 0.00 0.00 0.00 0.00 0.01 0.01 0.03 0.10 0.15 0.14 0.12 0.12 0.13 0.10 0.06 0.02
0.00 0.00 0.00 0.00 0.00 0.00 0.00 0.00 0.00 0.00 0.01 0.04 0.07 0.11 0.09 0.05 0.02 0.00 0.00 0.01 0.01 0.00 0.01 0.01 0.00 0.00 0.00 0.00 0.00 0.00 0.00 0.00 0.00 0.00 0.02 0.02 0.03 0.03 0.05 0.07 0.11 0.12 0.13 0.10 0.15 0.19 0.13 0.10 0.06
0.00 0.00 0.00 0.00 0.00 0.00 0.00 0.00 0.00 0.00 0.00 0.00 0.01 0.02 0.04 0.03 0.01 0.01 0.01 0.02 0.02 0.03 0.03 0.03 0.02 0.02 0.02 0.02 0.02 0.02 0.02 0.02 0.03 0.03 0.04 0.05 0.06 0.05 0.06 0.07 0.07 0.07 0.08 0.11 0.13 0.14 0.15 0.16 0.13
0.00 0.00 0.00 0.00 0.00 0.00 0.00 0.00 0.00 0.00 0.00 0.00 0.00 0.01 0.02 0.05 0.05 0.06 0.07 0.11 0.11 0.08 0.08 0.11 0.12 0.11 0.11 0.12 0.10 0.07 0.06 0.06 0.06 0.05 0.06 0.09 0.07 0.05 0.06 0.05 0.05 0.07 0.10 0.14 0.14 0.13 0.16 0.18 0.17
0.00 0.00 0.00 0.00 0.00 0.00 0.00 0.00 0.00 0.00 0.00 0.00 0.00 0.00 0.01 0.04 0.05 0.09 0.16 0.23 0.21 0.16 0.18 0.27 0.32 0.31 0.32 0.36 0.30 0.17 0.14 0.14 0.15 0.13 0.10 0.10 0.08 0.07 0.06 0.05 0.05 0.05 0.06 0.06 0.06 0.07 0.07 0.08 0.10
0.00 0.00 0.00 0.00 0.00 0.00 0.00 0.00 0.00 0.00 0.00 0.00 0.00 0.00 0.02 0.06 0.07 0.11 0.21 0.25 0.25 0.26 0.39 0.61 0.71 0.70 0.68 0.64 0.51 0.34 0.26 0.28 0.30 0.26 0.17 0.11 0.08 0.07 0.05 0.03 0.02 0.02 0.02 0.02 0.02 0.02 0.02 0.03 0.04
0.00 0.00 0.00 0.00 0.00 0.00 0.00 0.00 0.00 0.00 0.00 0.00 0.00 0.01 0.03 0.05 0.07 0.13 0.24 0.34 0.45 0.65 0.86 1.09 1.26 1.25 1.17 1.07 0.80 0.50 0.39 0.41 0.44 0.41 0.26 0.15 0.08 0.04 0.03 0.01 0.01 0.00 0.00 0.00 0.01 0.01 0.01 0.02 0.02
0.00 0.00 0.00 0.00 0.00 0.00 0.00 0.00 0.00 0.00 0.00 0.00 0.00 0.02 0.03 0.04 0.08 0.17 0.34 0.54 0.75 1.02 1.33 1.63 1.84 1.94 1.79 1.45 0.99 0.65 0.53 0.60 0.65 0.52 0.33 0.17 0.07 0.02 0.01 0.00 0.00 0.00 0.00 0.00 0.00 0.00 0.00 0.00 0.00
0.00 0.00 0.00 0.00 0.00 0.00 0.00 0.00 0.00 0.00 0.00 0.00 0.01 0.02 0.04 0.05 0.08 0.18 0.33 0.57 0.87 1.12 1.52 2.00 2.42 2.49 2.17 1.58 1.13 0.89 0.69 0.60 0.52 0.32 0.15 0.07 0.03 0.01 0.01 0.00 0.00 0.00 0.00 0.00 0.00 0.00 0.00 0.00 0.00
0.00 0.00 0.00 0.00 0.00 0.00 0.00 0.00 0.00 0.00 0.01 0.02 0.02 0.02 0.03 0.05 0.11 0.25 0.42 0.67 1.03 1.34 1.68 2.10 2.49 2.51 2.13 1.61 1.23 0.92 0.58 0.34 0.19 0.10 0.07 0.07 0.04 0.02 0.01 0.00 0.00 0.00 0.00 0.00 0.00 0.00 0.00 0.00 0.00
0.00 0.00 0.00 0.00 0.00 0.00 0.00 0.00 0.00 0.00 0.01 0.01 0.02 0.02 0.03 0.06 0.14 0.30 0.47 0.70 0.94 1.16 1.36 1.60 1.53 1.30 1.07 0.86 0.75 0.47 0.29 0.20 0.12 0.08 0.07 0.04 0.03 0.01 0.01 0.00 0.00 0.00 0.00 0.00 0.00 0.00 0.00 0.00 0.00
0.00 0.00 0.00 0.00 0.00 0.00 0.00 0.00 0.01 0.01 0.02 0.02 0.03 0.04 0.05 0.10 0.15 0.25 0.43 0.58 0.61 0.70 0.78 0.83 0.72 0.54 0.47 0.42 0.34 0.28 0.23 0.14 0.07 0.04 0.05 0.04 0.03 0.02 0.01 0.01 0.01 0.00 0.00 0.00 0.00 0.00 0.00 0.00 0.00
0.00 0.00 0.00 0.00 0.00 0.00 0.00 0.00 0.02 0.03 0.03 0.04 0.05 0.07 0.08 0.09 0.11 0.16 0.22 0.26 0.28 0.36 0.36 0.35 0.30 0.22 0.20 0.18 0.14 0.14 0.12 0.09 0.06 0.05 0.05 0.07 0.06 0.05 0.04 0.03 0.02 0.01 0.01 0.00 0.00 0.00 0.00 0.00 0.00
0.00 0.00 0.00 0.00 0.00 0.00 0.00 0.01 0.02 0.05 0.07 0.08 0.09 0.09 0.08 0.06 0.05 0.06 0.08 0.10 0.08 0.13 0.15 0.16 0.19 0.17 0.16 0.16 0.15 0.13 0.11 0.09 0.07 0.06 0.07 0.09 0.14 0.12 0.06 0.05 0.04 0.03 0.02 0.01 0.01 0.00 0.00 0.00 0.00
0.00 0.00 0.00 0.00 0.01 0.02 0.03 0.04 0.05 0.12 0.20 0.19 0.18 0.15 0.09 0.06 0.04 0.02 0.02 0.02 0.03 0.04 0.07 0.14 0.17 0.14 0.14 0.16 0.16 0.13 0.10 0.10 0.09 0.10 0.11 0.10 0.10 0.10 0.10 0.09 0.06 0.04 0.04 0.03 0.01 0.01 0.00 0.00 0.00
0.00 0.00 0.00 0.00 0.01 0.03 0.04 0.05 0.11 0.26 0.36 0.38 0.31 0.22 0.14 0.07 0.03 0.01 0.01 0.01 0.02 0.02 0.03 0.06 0.09 0.12 0.12 0.11 0.12 0.10 0.09 0.10 0.10 0.10 0.09 0.09 0.09 0.09 0.09 0.10 0.08 0.05 0.05 0.04 0.02 0.02 0.01 0.00 0.00
0.01 0.00 0.00 0.00 0.00 0.01 0.03 0.07 0.19 0.33 0.37 0.34 0.25 0.20 0.15 0.07 0.03 0.01 0.01 0.01 0.01 0.01 0.01 0.02 0.03 0.03 0.04 0.05 0.05 0.05 0.06 0.07 0.08 0.08 0.08 0.08 0.08 0.08 0.08 0.09 0.09 0.08 0.07 0.06 0.05 0.03 0.02 0.01 0.01
0.02 0.01 0.01 0.01 0.01 0.01 0.05 0.12 0.19 0.23 0.26 0.25 0.18 0.11 0.08 0.06 0.04 0.02 0.00 0.00 0.00 0.00 0.00 0.00 0.01 0.01 0.01 0.01 0.01 0.02 0.02 0.03 0.04 0.05 0.05 0.05 0.06 0.07 0.07 0.07 0.08 0.08 0.07 0.06 0.05 0.04 0.03 0.03 0.01
0.03 0.02 0.01 0.01 0.02 0.02 0.03 0.12 0.17 0.18 0.18 0.21 0.17 0.10 0.06 0.05 0.02 0.01 0.00 0.00 0.00 0.00 0.00 0.00 0.00 0.00 0.00 0.00 0.00 0.00 0.00 0.01 0.01 0.01 0.01 0.02 0.03 0.04 0.04 0.05 0.05 0.05 0.04 0.04 0.04 0.04 0.03 0.02 0.01
0.04 0.04 0.04 0.03 0.03 0.04 0.04 0.10 0.12 0.12 0.13 0.14 0.12 0.09 0.09 0.05 0.02 0.00 0.00 0.00 0.00 0.00 0.00 0.00 0.00 0.00 0.00 0.00 0.00 0.00 0.00 0.00 0.00 0.00 0.00 0.00 0.01 0.01 0.01 0.02 0.02 0.03 0.03 0.03 0.03 0.02 0.02 0.01 0.01
0.05 0.05 0.05 0.04 0.03 0.04 0.05 0.09 0.05 0.05 0.06 0.05 0.05 0.04 0.03 0.01 0.00 0.00 0.00 0.00 0.00 0.00 0.00 0.00 0.00 0.00 0.00 0.00 0.00 0.00 0.00 0.00 0.00 0.00 0.00 0.00 0.00 0.00 0.00 0.00 0.01 0.01 0.02 0.03 0.03 0.03 0.02 0.02 0.01
MSLP
1009.44 1010.64 1011.84 1012.78 1013.31 1013.30 1012.76 1011.80 1010.61 1009.42 1008.46 1007.88 1007.75 1008.01 1008.54 1009.17 1009.72 1010.06 1010.14 1009.98 1009.70 1009.42 1009.25 1009.29 1009.57 1010.02 1010.58 1011.12 1011.56 1011.85 1011.99 1012.00 1011.98 1011.99 1012.09 1012.30 1012.61 1012.96 1013.31 1013.59 1013.78 1013.89 1013.94 1013.96 1014.01 1014.10 1014.24 1014.42 1014.62
1009.70 1011.04 1012.26 1013.14 1013.50 1013.27 1012.48 1011.29 1009.90 1008.59 1007.57 1006.98 1006.87 1007.17 1007.74 1008.40 1008.98 1009.35 1009.48 1009.41 1009.24 1009.09 1009.05 1009.21 1009.58 1010.08 1010.65 1011.18 1011.60 1011.88 1012.01 1012.05 1012.07 1012.13 1012.27 1012.50 1012.79 1013.11 1013.39 1013.61 1013.75 1013.82 1013.85 1013.88 1013.95 1014.06 1014.21 1014.39 1014.57
1010.04 1011.46 1012.67 1013.46 1013.68 1013.26 1012.30 1010.96 1009.49 1008.14 1007.14 1006.59 1006.52 1006.84 1007.42 1008.06 1008.61 1008.97 1009.11 1009.08 1008.98 1008.92 1008.99 1009.25 1009.68 1010.22 1010.79 1011.31 1011.71 1011.98 1012.13 1012.21 1012.27 1012.38 1012.54 1012.77 1013.03 1013.27 1013.48 1013.61 1013.68 1013.70 1013.72 1013.77 1013.86 1014.01 1014.18 1014.36 1014.52
1010.40 1011.83 1012.99 1013.68 1013.76 1013.23 1012.19 1010.82 1009.37 1008.09 1007.17 1006.70 1006.69 1007.02 1007.56 1008.13 1008.59 1008.87 1008.97 1008.93 1008.87 1008.88 1009.02 1009.34 1009.82 1010.38 1010.95 1011.45 1011.84 1012.11 1012.28 1012.40 1012.52 1012.66 1012.85 1013.06 1013.27 1013.44 1013.55 1013.60 1013.59 1013.58 1013.59 1013.66 1013.78 1013.96 1014.16 1014.34 1014.48
1010.72 1012.08 1013.13 1013.70 1013.68 1013.09 1012.05 1010.75 1009.43 1008.31 1007.54 1007.18 1007.22 1007.54 1007.99 1008.44 1008.77 1008.93 1008.94 1008.87 1008.82 1008.87 1009.07 1009.44 1009.95 1010.52 1011.07 1011.55 1011.93 1012.20 1012.39 1012.56 1012.72 1012.92 1013.13 1013.33 1013.50 1013.60 1013.62 1013.58 1013.52 1013.47 1013.47 1013.56 1013.71 1013.92 1014.14 1014.33 1014.46
1010.92 1012.13 1013.02 1013.44 1013.33 1012.73 1011.76 1010.61 1009.49 1008.58 1008.00 1007.77 1007.85 1008.13 1008.47 1008.76 1008.93 1008.95 1008.86 1008.76 1008.72 1008.81 1009.08 1009.50 1010.03 1010.59 1011.12 1011.57 1011.92 1012.18 1012.39 1012.60 1012.82 1013.06 1013.30 1013.51 1013.65 1013.70 1013.67 1013.56 1013.45 1013.37 1013.37 1013.46 1013.64 1013.87 1014.10 1014.29 1014.42
1010.97 1011.96 1012.64 1012.89 1012.69 1012.09 1011.23 1010.27 1009.38 1008.70 1008.31 1008.20 1008.31 1008.52 1008.74 1008.87 1008.88 1008.78 1008.62 1008.51 1008.51 1008.67 1009.01 1009.49 1010.04 1010.59 1011.08 1011.48 1011.79 1012.02 1012.24 1012.47 1012.74 1013.03 1013.32 1013.55 1013.70 1013.73 1013.66 1013.52 1013.37 1013.26 1013.25 1013.34 1013.53 1013.76 1014.00 1014.20 1014.32
1010.87 1011.60 1012.02 1012.08 1011.78 1011.18 1010.42 1009.64 1008.97 1008.51 1008.29 1008.27 1008.39 1008.53 1008.63 1008.63 1008.52 1008.34 1008.18 1008.11 1008.20 1008.47 1008.90 1009.45 1010.03 1010.56 1011.00 1011.32 1011.55 1011.74 1011.93 1012.17 1012.47 1012.81 1013.15 1013.43 1013.61 1013.66 1013.58 1013.43 1013.26 1013.13 1013.10 1013.18 1013.35 1013.58 1013.81 1014.00 1014.11
1010.67 1011.12 1011.28 1011.13 1010.70 1010.09 1009.41 1008.77 1008.28 1007.98 1007.88 1007.93 1008.03 1008.12 1008.13 1008.04 1007.87 1007.69 1007.59 1007.63 1007.86 1008.27 1008.83 1009.45 1010.05 1010.55 1010.91 1011.13 1011.26 1011.36 1011.49 1011.71 1012.03 1012.41 1012.81 1013.15 1013.38 1013.47 1013.43 1013.28 1013.11 1012.97 1012.91 1012.95 1013.09 1013.29 1013.50 1013.68 1013.79
1010.45 1010.63 1010.53 1010.18 1009.62 1008.97 1008.32 1007.77 1007.40 1007.21 1007.18 1007.25 1007.34 1007.38 1007.33 1007.21 1007.06 1006.96 1006.98 1007.19 1007.60 1008.18 1008.87 1009.56 1010.17 1010.61 1010.87 1010.96 1010.96 1010.95 1011.00 1011.17 1011.48 1011.89 1012.34 1012.74 1013.04 1013.19 1013.19 1013.08 1012.91 1012.76 1012.67 1012.68 1012.77 1012.92 1013.09 1013.24 1013.35
1010.30 1010.25 1009.92 1009.38 1008.70 1007.98 1007.33 1006.82 1006.50 1006.37 1006.37 1006.44 1006.50 1006.52 1006.47 1006.37 1006.30 1006.32 1006.52 1006.92 1007.52 1008.27 1009.07 1009.82 1010.40 1010.77 1010.91 1010.86 1010.71 1010.56 1010.51 1010.61 1010.89 1011.30 1011.78 1012.25 1012.61 1012.83 1012.90 1012.83 1012.68 1012.53 1012.41 1012.37 1012.41 1012.50 1012.63 1012.75 1012.83
1010.28 1010.04 1009.54 1008.84 1008.05 1007.27 1006.60 1006.09 1005.79 1005.66 1005.66 1005.72 1005.78 1005.79 1005.77 1005.75 1005.79 1005.97 1006.34 1006.93 1007.69 1008.57 1009.45 1010.21 1010.75 1011.02 1011.03 1010.83 1010.53 1010.24 1010.07 1010.09 1010.32 1010.72 1011.21 1011.72 1012.14 1012.44 1012.57 1012.55 1012.44 1012.30 1012.17 1012.09 1012.07 1012.11 1012.18 1012.26 1012.32
1010.41 1010.05 1009.41 1008.61 1007.74 1006.92 1006.22 1005.71 1005.41 1005.28 1005.27 1005.32 1005.38 1005.42 1005.45 1005.52 1005.68 1006.00 1006.52 1007.24 1008.11 1009.05 1009.93 1010.66 1011.13 1011.29 1011.18 1010.85 1010.42 1010.02 1009.74 1009.68 1009.84 1010.20 1010.69 1011.21 1011.68 1012.03 1012.23 1012.28 1012.22 1012.10 1011.98 1011.88 1011.82 1011.81 1011.82 1011.85 1011.87
1010.66 1010.22 1009.52 1008.66 1007.77 1006.93 1006.24 1005.75 1005.45 1005.33 1005.33 1005.39 1005.47 1005.56 1005.65 1005.80 1006.05 1006.47 1007.06 1007.83 1008.71 1009.62 1010.45 1011.09 1011.45 1011.51 1011.30 1010.88 1010.37 1009.89 1009.54 1009.40 1009.50 1009.81 1010.26 1010.77 1011.26 1011.65 1011.90 1012.02 1012.03 1011.96 1011.87 1011.77 1011.70 1011.65 1011.62 1011.59 1011.56
1010.96 1010.48 1009.75 1008.90 1008.03 1007.25 1006.61 1006.17 1005.92 1005.83 1005.86 1005.96 1006.08 1006.21 1006.36 1006.56 1006.86 1007.29 1007.87 1008.58 1009.38 1010.17 1010.87 1011.39 1011.64 1011.62 1011.34 1010.88 1010.35 1009.84 1009.45 1009.27 1009.31 1009.56 1009.95 1010.42 1010.89 1011.30 1011.60 1011.79 1011.87 1011.88 1011.84 1011.78 1011.71 1011.64 1011.58 1011.50 1011.41
1011.22 1010.72 1010.02 1009.23 1008.45 1007.77 1007.24 1006.90 1006.73 1006.72 1006.81 1006.95 1007.12 1007.29 1007.47 1007.69 1007.96 1008.34 1008.82 1009.39 1010.01 1010.62 1011.14 1011.51 1011.65 1011.57 1011.28 1010.85 1010.34 1009.86 1009.49 1009.29 1009.28 1009.45 1009.76 1010.17 1010.59 1010.99 1011.32 1011.57 1011.73 1011.82 1011.86 1011.86 1011.83 1011.77 1011.69 1011.56 1011.42
1011.37 1010.88 1010.24 1009.57 1008.94 1008.42 1008.05 1007.85 1007.81 1007.89 1008.06 1008.26 1008.47 1008.66 1008.84 1009.02 1009.23 1009.48 1009.79 1010.15 1010.54 1010.92 1011.24 1011.45 1011.50 1011.40 1011.14 1010.78 1010.37 1009.97 1009.64 1009.43 1009.38 1009.47 1009.68 1009.99 1010.34 1010.70 1011.04 1011.33 1011.57 1011.76 1011.90 1011.98 1012.00 1011.98 1011.89 1011.74 1011.54
1011.36 1010.91 1010.39 1009.89 1009.46 1009.16 1008.99 1008.97 1009.06 1009.25 1009.49 1009.73 1009.96 1010.15 1010.29 1010.41 1010.50 1010.59 1010.69 1010.81 1010.95 1011.09 1011.20 1011.27 1011.26 1011.16 1010.97 1010.72 1010.43 1010.14 1009.88 1009.69 1009.59 1009.59 1009.68 1009.87 1010.12 1010.41 1010.73 1011.06 1011.37 1011.65 1011.88 1012.06 1012.16 1012.17 1012.11 1011.96 1011.73
1011.20 1010.84 1010.49 1010.21 1010.03 1009.97 1010.03 1010.19 1010.42 1010.70 1010.97 1011.23 1011.44 1011.59 1011.67 1011.69 1011.65 1011.57 1011.46 1011.36 1011.26 1011.18 1011.12 1011.07 1011.01 1010.95 1010.85 1010.72 1010.56 1010.38 1010.19 1010.01 1009.86 1009.76 1009.73 1009.78 1009.91 1010.13 1010.41 1010.74 1011.10 1011.46 1011.78 1012.04 1012.22 1012.30 1012.26 1012.13 1011.90
1010.96 1010.74 1010.60 1010.58 1010.68 1010.89 1011.17 1011.49 1011.83 1012.14 1012.42 1012.64 1012.79 1012.86 1012.85 1012.76 1012.60 1012.37 1012.09 1011.80 1011.52 1011.27 1011.08 1010.94 1010.87 1010.84 1010.83 1010.82 1010.78 1010.69 1010.55 1010.37 1010.17 1009.97 1009.81 1009.72 1009.73 1009.84 1010.06 1010.38 1010.76 1011.17 1011.56 1011.90 1012.15 1012.28 1012.30 1012.19 1011.99
1010.69 1010.66 1010.79 1011.06 1011.45 1011.91 1012.39 1012.84 1013.22 1013.52 1013.73 1013.86 1013.90 1013.87 1013.75 1013.57 1013.30 1012.97 1012.58 1012.18 1011.78 1011.43 1011.15 1010.97 1010.89 1010.90 1010.95 1011.02 1011.06 1011.04 1010.93 1010.74 1010.47 1010.18 1009.90 1009.68 1009.56 1009.58 1009.73 1010.01 1010.39 1010.81 1011.24 1011.62 1011.92 1012.11 1012.17 1012.11 1011.94
1010.49 1010.70 1011.11 1011.68 1012.34 1013.03 1013.65 1014.17 1014.53 1014.75 1014.84 1014.82 1014.71 1014.55 1014.33 1014.06 1013.74 1013.37 1012.95 1012.50 1012.07 1011.69 1011.38 1011.18 1011.10 1011.12 1011.21 1011.31 1011.39 1011.39 1011.29 1011.07 1010.75 1010.37 1010.00 1009.67 1009.46 1009.38 1009.46 1009.69 1010.03 1010.44 1010.86 1011.25 1011.57 1011.78 1011.88 1011.86 1011.75
1010.41 1010.86 1011.56 1012.40 1013.31 1014.16 1014.87 1015.39 1015.68 1015.76 1015.67 1015.47 1015.20 1014.90 1014.59 1014.27 1013.94 1013.58 1013.19 1012.79 1012.38 1012.02 1011.72 1011.53 1011.44 1011.46 1011.54 1011.64 1011.71 1011.70 1011.58 1011.33 1010.98 1010.55 1010.11 1009.72 1009.43 1009.29 1009.29 1009.46 1009.74 1010.10 1010.48 1010.84 1011.14 1011.35 1011.46 1011.47 1011.41
1010.48 1011.16 1012.10 1013.17 1014.25 1015.21 1015.94 1016.40 1016.57 1016.48 1016.20 1015.80 1015.37 1014.94 1014.56 1014.23 1013.92 1013.63 1013.33 1013.01 1012.68 1012.38 1012.12 1011.93 1011.84 1011.83 1011.87 1011.94 1011.98 1011.94 1011.79 1011.53 1011.15 1010.72 1010.26 1009.84 1009.52 1009.32 1009.27 1009.37 1009.57 1009.85 1010.16 1010.45 1010.69 1010.87 1010.97 1011.00 1010.97
1010.69 1011.56 1012.68 1013.89 1015.07 1016.05 1016.75 1017.12 1017.14 1016.87 1016.40 1015.83 1015.25 1014.73 1014.31 1013.99 1013.74 1013.54 1013.35 1013.15 1012.92 1012.70 1012.48 1012.31 1012.20 1012.14 1012.14 1012.15 1012.13 1012.06 1011.90 1011.63 1011.28 1010.86 1010.43 1010.03 1009.71 1009.49 1009.40 1009.43 1009.55 1009.73 1009.93 1010.13 1010.29 1010.40 1010.46 1010.47 1010.46
1011.02 1012.00 1013.21 1014.49 1015.67 1016.62 1017.24 1017.48 1017.35 1016.92 1016.30 1015.60 1014.93 1014.36 1013.93 1013.64 1013.47 1013.37 1013.29 1013.19 1013.07 1012.91 1012.74 1012.57 1012.43 1012.33 1012.26 1012.21 1012.15 1012.05 1011.88 1011.64 1011.33 1010.97 1010.60 1010.26 1009.97 1009.76 1009.64 1009.61 1009.65 1009.72 1009.81 1009.89 1009.95 1009.98 1009.98 1009.96 1009.93
1011.44 1012.45 1013.66 1014.90 1016.02 1016.87 1017.38 1017.49 1017.25 1016.70 1015.99 1015.22 1014.51 1013.93 1013.52 1013.27 1013.17 1013.15 1013.16 1013.15 1013.09 1012.98 1012.83 1012.65 1012.48 1012.33 1012.21 1012.10 1012.00 1011.89 1011.73 1011.53 1011.29 1011.02 1010.74 1010.47 1010.24 1010.06 1009.93 1009.86 1009.81 1009.79 1009.77 1009.74 1009.69 1009.63 1009.56 1009.49 1009.42
1011.92 1012.89 1014.01 1015.14 1016.12 1016.84 1017.22 1017.23 1016.91 1016.31 1015.58 1014.81 1014.11 1013.56 1013.19 1012.98 1012.92 1012.94 1012.99 1013.01 1012.98 1012.88 1012.72 1012.53 1012.32 1012.13 1011.96 1011.82 1011.69 1011.57 1011.45 1011.30 1011.14 1010.96 1010.78 1010.60 1010.44 1010.29 1010.17 1010.07 1009.97 1009.86 1009.75 1009.62 1009.48 1009.33 1009.19 1009.07 1008.96
1012.46 1013.32 1014.29 1015.24 1016.05 1016.62 1016.88 1016.81 1016.45 1015.88 1015.18 1014.47 1013.84 1013.34 1013.01 1012.83 1012.77 1012.79 1012.81 1012.81 1012.75 1012.62 1012.43 1012.20 1011.96 1011.72 1011.52 1011.35 1011.22 1011.11 1011.01 1010.92 1010.83 1010.74 1010.64 1010.55 1010.46 1010.36 1010.26 1010.15 1010.01 1009.86 1009.68 1009.48 1009.27 1009.07 1008.87 1008.70 1008.55
1013.03 1013.75 1014.53 1015.29 1015.91 1016.32 1016.47 1016.36 1016.02 1015.50 1014.89 1014.29 1013.74 1013.31 1013.00 1012.82 1012.72 1012.67 1012.62 1012.54 1012.40 1012.20 1011.96 1011.68 1011.41 1011.15 1010.92 1010.74 1010.60 1010.50 1010.43 1010.38 1010.35 1010.32 1010.29 1010.27 1010.23 1010.18 1010.11 1010.01 1009.87 1009.70 1009.49 1009.26 1009.02 1008.79 1008.56 1008.36 1008.18
Thickness
5851 5848 5844 5830 5811 5798 5802 5832 5852 5857 5859 5867 5872 5864 5852 5843 5833 5824 5850 5856 5850 5843 5839 5834 5831 5827 5824 5820 5817 5814 5811 5808 5806 5803 5800 5798 5796 5793 5791 5788 5786 5784 5781 5779 5776 5774 5771 5770 5768
5854 5849 5837 5822 5803 5789 5806 5837 5846 5855 5865 5873 5871 5863 5853 5846 5852 5849 5850 5853 5851 5845 5840 5835 5831 5827 5823 5820 5816 5813 5810 5807 5805 5802 5799 5797 5794 5792 5789 5787 5785 5783 5781 5778 5776 5774 5771 5769 5768
5855 5851 5828 5812 5802 5797 5810 5836 5846 5860 5872 5874 5864 5863 5854 5847 5852 5851 5854 5853 5848 5843 5839 5835 5831 5827 5823 5819 5815 5812 5809 5806 5803 5800 5798 5795 5793 5791 5788 5786 5784 5782 5779 5777 5775 5773 5771 5769 5767
5852 5837 5825 5807 5803 5819 5828 5838 5849 5853 5860 5868 5862 5851 5857 5864 5861 5857 5854 5850 5844 5840 5837 5834 5830 5826 5822 5818 5814 5811 5807 5804 5802 5799 5796 5793 5791 5789 5786 5784 5782 5780 5778 5776 5774 5772 5770 5768 5767
5848 5827 5808 5798 5808 5829 5841 5848 5853 5848 5851 5857 5857 5844 5846 5862 5866 5859 5852 5847 5842 5838 5835 5832 5829 5824 5820 5816 5813 5809 5806 5802 5799 5796 5793 5791 5788 5786 5784 5782 5780 5778 5777 5775 5773 5771 5769 5768 5766
5832 5818 5796 5790 5809 5833 5843 5852 5848 5844 5845 5850 5851 5841 5841 5857 5857 5853 5851 5846 5843 5839 5834 5831 5827 5823 5819 5815 5810 5807 5803 5800 5796 5793 5790 5788 5785 5783 5782 5780 5778 5776 5775 5773 5772 5770 5769 5767 5765
5825 5811 5798 5803 5810 5824 5843 5853 5845 5838 5838 5846 5852 5835 5837 5847 5855 5854 5850 5846 5842 5838 5834 5830 5826 5822 5817 5812 5808 5804 5800 5797 5794 5791 5788 5786 5783 5781 5779 5778 5776 5774 5773 5772 5770 5769 5768 5767 5765
5839 5814 5803 5804 5810 5821 5847 5852 5851 5841 5836 5855 5855 5834 5831 5846 5856 5853 5846 5842 5839 5835 5832 5829 5824 5819 5814 5809 5805 5801 5797 5794 5791 5788 5786 5783 5781 5779 5777 5775 5774 5772 5771 5770 5769 5768 5766 5765 5763
5846 5806 5792 5804 5813 5826 5848 5846 5851 5855 5846 5847 5853 5851 5854 5857 5855 5847 5840 5835 5832 5831 5828 5826 5822 5817 5811 5806 5802 5798 5794 5791 5788 5785 5782 5779 5777 5776 5774 5773 5771 5770 5769 5768 5767 5766 5764 5762 5761
5825 5797 5807 5827 5834 5837 5848 5849 5849 5842 5835 5837 5843 5852 5860 5857 5852 5845 5840 5835 5831 5828 5825 5822 5818 5813 5807 5802 5798 5793 5790 5787 5784 5781 5779 5776 5774 5772 5771 5769 5769 5768 5768 5767 5766 5764 5762 5760 5759
5825 5814 5828 5838 5846 5849 5848 5849 5853 5838 5824 5836 5841 5848 5856 5856 5852 5847 5843 5841 5836 5829 5823 5818 5812 5806 5800 5796 5792 5788 5785 5783 5780 5777 5774 5772 5769 5767 5766 5766 5766 5766 5766 5764 5764 5763 5760 5759 5758
5822 5828 5836 5841 5848 5847 5848 5851 5847 5844 5845 5857 5859 5860 5856 5852 5848 5845 5841 5838 5833 5825 5818 5812 5803 5798 5793 5789 5787 5784 5782 5780 5776 5773 5770 5767 5765 5764 5763 5763 5763 5763 5763 5761 5760 5759 5758 5757 5756
5820 5826 5837 5843 5845 5847 5849 5847 5848 5849 5859 5860 5856 5854 5851 5848 5846 5845 5840 5830 5823 5817 5811 5805 5796 5790 5784 5778 5776 5778 5778 5777 5774 5771 5767 5765 5762 5760 5759 5759 5759 5759 5759 5757 5756 5756 5755 5754 5754
5817 5822 5829 5838 5842 5846 5841 5841 5842 5845 5855 5849 5845 5843 5844 5840 5837 5831 5827 5819 5811 5802 5796 5792 5783 5775 5770 5765 5762 5769 5773 5773 5771 5768 5764 5762 5759 5757 5755 5753 5754 5754 5754 5753 5752 5752 5752 5751 5751
5817 5809 5815 5828 5833 5838 5834 5821 5833 5846 5846 5838 5837 5835 5830 5826 5821 5817 5815 5810 5803 5795 5789 5781 5771 5763 5759 5758 5755 5759 5766 5766 5764 5761 5759 5757 5755 5752 5750 5748 5748 5748 5749 5749 5748 5748 5748 5747 5748
5800 5790 5784 5810 5822 5829 5815 5795 5830 5842 5836 5828 5827 5823 5815 5809 5807 5807 5805 5801 5796 5788 5779 5769 5759 5753 5756 5751 5750 5752 5756 5756 5756 5754 5752 5750 5749 5747 5745 5743 5742 5743 5743 5743 5742 5741 5741 5742 5742
5772 5765 5772 5796 5820 5821 5810 5796 5823 5834 5829 5818 5815 5811 5804 5798 5795 5795 5795 5792 5785 5778 5771 5763 5756 5749 5744 5744 5745 5748 5749 5749 5749 5747 5745 5743 5744 5743 5741 5738 5738 5738 5738 5737 5737 5736 5736 5736 5737
5756 5763 5772 5782 5810 5815 5802 5799 5813 5819 5817 5807 5802 5798 5792 5785 5782 5783 5782 5779 5774 5770 5763 5756 5748 5744 5735 5738 5738 5738 5741 5740 5740 5739 5740 5740 5739 5738 5736 5734 5733 5733 5732 5731 5731 5731 5732 5733 5734
5779 5775 5773 5787 5809 5802 5792 5791 5794 5798 5794 5787 5782 5779 5775 5771 5771 5772 5771 5767 5763 5759 5752 5746 5741 5734 5728 5728 5730 5728 5728 5732 5733 5735 5735 5736 5734 5733 5731 5729 5728 5728 5727 5727 5727 5727 5727 5728 5730
5783 5773 5772 5784 5801 5795 5780 5772 5776 5778 5774 5771 5766 5762 5759 5758 5757 5757 5757 5755 5751 5749 5744 5741 5735 5732 5727 5724 5724 5724 5726 5727 5729 5731 5730 5731 5729 5728 5726 5725 5724 5723 5723 5723 5723 5722 5721 5723 5726
5778 5772 5772 5774 5783 5783 5773 5753 5756 5759 5761 5759 5754 5750 5748 5747 5743 5742 5743 5742 5742 5739 5735 5734 5728 5725 5723 5721 5720 5719 5720 5721 5722 5722 5723 5725 5725 5723 5722 5720 5720 5719 5719 5718 5718 5718 5717 5715 5719
5765 5784 5783 5776 5760 5744 5754 5728 5737 5739 5740 5740 5739 5737 5734 5733 5733 5733 5732 5732 5732 5729 5726 5722 5719 5717 5715 5714 5713 5712 5710 5709 5712 5714 5716 5718 5719 5718 5717 5715 5715 5715 5714 5714 5714 5715 5713 5712 5711
5778 5788 5780 5771 5755 5739 5737 5724 5721 5727 5719 5720 5725 5726 5725 5724 5724 5722 5722 5722 5721 5719 5716 5712 5709 5706 5705 5705 5705 5704 5702 5702 5704 5706 5708 5709 5710 5711 5710 5710 5710 5710 5710 5710 5710 5709 5709 5708 5708
5788 5776 5762 5746 5732 5716 5723 5714 5705 5710 5710 5712 5716 5718 5719 5717 5715 5714 5715 5714 5711 5707 5704 5700 5697 5694 5693 5693 5693 5692 5690 5690 5692 5693 5695 5698 5700 5701 5703 5704 5704 5704 5705 5704 5704 5704 5704 5704 5704
5775 5739 5712 5708 5697 5700 5715 5705 5700 5712 5717 5716 5713 5713 5716 5712 5708 5706 5705 5703 5700 5697 5693 5689 5685 5682 5681 5680 5680 5679 5678 5678 5677 5678 5680 5682 5685 5688 5691 5694 5696 5697 5698 5699 5699 5699 5699 5699 5699
5763 5742 5707 5694 5692 5696 5705 5698 5704 5714 5716 5715 5712 5710 5709 5704 5701 5699 5697 5694 5691 5687 5683 5678 5673 5669 5667 5666 5665 5664 5663 5663 5663 5664 5665 5667 5669 5673 5677 5680 5683 5686 5689 5690 5692 5692 5693 5693 5694
5754 5743 5739 5713 5708 5694 5691 5697 5702 5707 5705 5704 5703 5701 5698 5696 5694 5691 5688 5684 5679 5674 5670 5665 5660 5656 5653 5651 5649 5648 5648 5647 5647 5649 5650 5652 5654 5657 5660 5663 5667 5671 5675 5678 5681 5683 5685 5686 5688
5760 5749 5725 5709 5694 5684 5690 5689 5686 5692 5693 5695 5693 5689 5688 5686 5683 5680 5677 5672 5667 5662 5656 5650 5645 5641 5638 5636 5634 5633 5631 5631 5630 5631 5632 5635 5638 5640 5643 5646 5650 5655 5659 5664 5667 5671 5675 5677 5680
5748 5739 5723 5705 5697 5682 5676 5682 5703 5695 5693 5689 5685 5683 5680 5677 5674 5671 5667 5663 5657 5651 5643 5636 5629 5624 5620 5617 5615 5614 5613 5612 5612 5613 5615 5617 5620 5623 5626 5629 5633 5637 5643 5648 5653 5658 5663 5667 5671
5748 5738 5721 5700 5695 5688 5674 5676 5705 5696 5690 5684 5678 5675 5671 5668 5664 5659 5654 5648 5641 5634 5628 5621 5615 5609 5605 5601 5597 5594 5592 5590 5589 5591 5594 5597 5600 5604 5607 5611 5615 5620 5626 5631 5637 5643 5649 5654 5659